Torna al catalogo

WEILI KONGJIAN 05-03

AttivoNavigazioneLEO
NORAD 69584·PAYLOAD·🇨🇳 China
Questo nome del satellite non è ancora stato confermato da fonti ufficiali.

Lanciato Jun 17, 2026 da Jiuquan Satellite Launch Center

Loading…

Prossimi Passaggi (prossime 24 ore)

TLE

AggiornatoSource: Space-Track

Epoca: Sep 14, 2026, 04:05 UTC

1 69584U 26138C   26257.17072685 -.00000007  00000-0  83798-4 0  9997
2 69584  55.1411 313.0774 0008037 262.8981  97.1076 14.08162345 12614

Traccia WEILI KONGJIAN 05-03 in tempo reale con AllMySat

Download on the App Store